Погода в Бутырках

Россия / Липецкая область     52°32′53″N   38°57′40″E
темп.,
°C
ветер,
м/с
пор.,
м/с
влажн.,
%
обл.,
%
осадки,
мм/ч
давл.,
гПа
погр.,
м
14 августа, вс
вс1400:00+22вюв2457100 0.0 102096
03:00+21св1265100 0.0 101932
06:00+21ссв3565100 0.0 1018108
09:00+23всв246498 0.0 1019340
12:00+26всв564819 0.0 1019791
15:00+27всв673756 0.0 10181032
18:00+24всв474266 0.0 1018371
21:00+21св485381 0.0 1018154
15 августа, пн
пн1500:00+20всв4115841 0.0 1017212
03:00+19всв4105973 0.0 1017181
06:00+18в4106299 0.0 1017204
09:00+25в69449 0.0 1017520
12:00+30в783257 0.0 10171695
15:00+31в773053 0.0 10161899
18:00+29в583490 0.0 1016706
21:00+25всв61443100 0.0 1016346
16 августа, вт
вт1600:00+24в71542100 0.0 1017521
03:00+22вюв6143956 0.0 1018457
06:00+20в61440100 0.0 1018355
09:00+24в7103430 0.0 1018600
12:00+28в892697 0.0 10171274
15:00+30в7825100 0.0 10161667
18:00+29в582980 0.0 1016723
21:00+24в2337100 0.0 101645
17 августа, ср
ср1700:00+25св4834100 0.0 1015137
03:00+24в51238100 0.0 1015267
06:00+23в51232100 0.0 1015383
09:00+24в51235100 0.0 1015499
12:00+30вюв7102885 0.0 10141239
15:00+31вюв892442 0.0 10141692
18:00+30в7102493 0.0 1013858
21:00+26всв7153173 0.0 1013458
18 августа, чт
чт1800:00+23в6153347 0.0 1013449
03:00+21в5124196 0.0 1014363
06:00+21всв6154379 0.0 1013400
09:00+25в81236100 0.0 1013620
12:00+29в8102996 0.0 10131015
15:00+32в7925100 0.0 10122032
18:00+29в71130100 0.0 1013914
21:00+25всв61439100 0.0 1013450